Location: Gleizolles
(44.4833°N, 6.7667°E)
Time: 20:28:36
(UTC+00:00)

Explorer 7 - Pass Details

Date: 18 June 2024
Orbit: 465 x 619 km, 50.3° (Epoch: 19 July)

Event Time Altitude Azimuth Distance (km) Brightness Sun altitude
Rises 19:03:31 0° 282° (WNW) 2,494 11.8 1.7°
Maximum altitude 19:08:08 11° 228° (SW) 1,550 9.4 1.0°
Drops below altitude 10° 19:09:14 10° 210° (SSW) 1,620 9.2 0.9°
Sets 19:12:48 0° 174° (S) 2,513 9.8 0.3°
